Regional Weather Roundup
Issued by NWS Little Rock, AR

Home | Current Version | Previous Version | Graphics & Text | Print | Product List | Glossary On
Versions: 1 2 3 4 5 6 7 8 9 10 11 12 13 14 15 16 17 18 19 20 21 22 23 24 25 26 27 28 29 30 31
000
ASUS44 KLZK 240205
RWRLZK

WEATHER ROUNDUP FOR ARKANSAS
NATIONAL WEATHER SERVICE LITTLE ROCK AR
800 PM CST MON JAN 23 2017

NOTE: "FAIR" INDICATES FEW OR NO CLOUDS BELOW 12,000 FEET WITH NO
SIGNIFICANT WEATHER AND/OR OBSTRUCTIONS TO VISIBILITY.

ARZ001-003-010-029-240300-
NORTHWEST ARKANSAS

CITY           SKY/WX    TMP DP  RH WIND       PRES   REMARKS
FAYETTEVILLE   CLEAR     36  34  92 CALM      29.82S
FORT SMITH     CLEAR     45  34  65 CALM      29.82S
HARRISON       CLEAR     40  33  76 S3        29.84S
BENTONVILLE    CLEAR    N/A N/A N/A CALM      29.81F
ROGERS         CLEAR     44  34  67 E6        29.82F
SILOAM SPGS      N/A    N/A N/A N/A MISG        N/A
HIGHFILL       CLEAR     42  32  67 CALM      29.80F
SPRINGDALE     CLEAR     45  32  61 SE3       29.83S
$$

ARZ004-005-016-240300-
NORTH CENTRAL ARKANSAS

CITY           SKY/WX    TMP DP  RH WIND       PRES   REMARKS
BATESVILLE     CLEAR     43  34  70 SW3       29.88R
FLIPPIN        CLEAR     39  30  70 CALM      29.82F
MTN HOME       CLEAR     40  33  76 CALM      29.84F
$$

ARZ040-041-240300-
WEST CENTRAL ARKANSAS

CITY           SKY/WX    TMP DP  RH WIND       PRES   REMARKS
MENA           CLEAR     43  41  93 CALM      29.84R
MOUNT IDA      CLEAR     43  36  76 CALM      29.81F
$$

ARZ009-017-025-026-028-240300-
NORTHEAST ARKANSAS

CITY           SKY/WX    TMP DP  RH WIND       PRES   REMARKS
CORNING        FAIR      43  37  81 CALM      29.87R
JONESBORO      CLEAR     43  37  79 N3        29.86R
NEWPORT        CLEAR     46  40  79 CALM      29.87R
WALNUT RIDGE   CLEAR     45  34  65 NW3       29.86R
BLYTHEVILLE    CLEAR     43  39  86 NE7       29.86S
$$

ARZ022-023-033-042-044-240300-
CENTRAL ARKANSAS

CITY           SKY/WX    TMP DP  RH WIND       PRES   REMARKS
LITTLE ROCK    CLEAR     44  39  82 CALM      29.86F
N LITTLE ROCK    N/A     47  38  70 CALM      29.87F
JACKSONVILLE   CLEAR     42  40  92 CALM      29.85F
SEARCY         CLEAR     40  38  93 CALM      29.88S
HOT SPRINGS    CLEAR     42  37  82 E3        29.85S
RUSSELLVILLE   CLEAR     41  37  86 CALM      29.83F
CLINTON        FAIR      37  36  93 CALM      29.86S FOG
$$

ARZ036-240300-
EAST ARKANSAS

CITY           SKY/WX    TMP DP  RH WIND       PRES   REMARKS
WEST MEMPHIS   CLEAR     46  41  82 W3        29.85S
$$

ARZ050-053-066-070-073-240300-
SOUTHWEST ARKANSAS

CITY           SKY/WX    TMP DP  RH WIND       PRES   REMARKS
ARKADELPHIA    FAIR      45  44  97 CALM      29.87R
CAMDEN         CLEAR     43  39  87 CALM      29.87S
TEXARKANA      CLEAR     50  38  63 SE6       29.84F
EL DORADO        N/A    N/A N/A N/A MISG      29.87F
DE QUEEN       CLEAR     44  41  89 CALM      29.83R
$$

ARZ056-057-069-240300-
SOUTHEAST ARKANSAS

CITY           SKY/WX    TMP DP  RH WIND       PRES   REMARKS
PINE BLUFF     CLEAR     46  43  89 E3        29.88R
STUTTGART      CLEAR     48  37  66 SW3       29.88S
MONTICELLO     CLEAR     45  41  86 CALM      29.88R

$$






USA.gov is the U.S. government's official web portal to all federal, state and local government web resources and services.